User: anonymous   Login
Location: Unspecified
(0.0000°N, 0.0000°E)
Time: 01:04:46
(UTC+00:00)
Language:

SMS 2 - Orbit

View from above orbital plane
View from above orbital plane
View from above satellite
View from above satellite

Ground track
Ground track

The orbit data is extracted from the following two-line orbital elements,

1 07648U 75011A   21023.46732389  .00000118  00000-0  00000-0 0  9999
2 07648  10.2672 305.9216 0010092 212.5200   4.6761  0.99507490116066
Epoch (UTC): 23 January 2021 11:12:56
Eccentricity: 0.0010092
inclination: 10.2672°
perigee height: 35959 km
apogee height: 36044 km
right ascension of ascending node: 305.9216°
argument of perigee: 212.5200°
revolutions per day: 0.99507490
mean anomaly at epoch: 4.6761°
orbit number at epoch: 11606

The dashed part of the orbit path shows where the satellite is in the earth's shadow,  

DLR